FW6296 Weather Reports


Display with metric or nautical units.
time (UTC)temp
F
wind
direction
speed
MPH
gust
MPH
rain 1hr
in
rain 24hr
in
rain mn
in
humidity
%
barometer
mb
20260904232516 92 277 2.0 5.0 0.00 0.00 0.00 59 1012.7
20260904231518 93 273 2.0 4.0 0.00 0.00 0.00 59 1012.7
20260904230544 93 275 2.0 4.0 0.00 0.00 0.00 60 1012.7
20260904225536 94 271 1.0 4.0 0.00 0.00 0.00 59 1012.7
20260904224516 94 278 2.0 6.0 0.00 0.00 0.00 59 1012.6
20260904223536 94 291 1.0 5.0 0.00 0.00 0.00 58 1012.7
20260904222517 93 277 2.0 5.0 0.00 0.00 0.00 58 1012.7
20260904221517 93 276 2.0 5.0 0.00 0.00 0.00 58 1012.6
20260904220516 94 278 2.0 5.0 0.00 0.00 0.00 57 1012.5
20260904215517 95 291 1.0 6.0 0.00 0.00 0.00 54 1012.5
20260904214537 95 276 3.0 6.0 0.00 0.00 0.00 54 1012.5
20260904213517 95 275 1.0 4.0 0.00 0.00 0.00 54 1012.4
20260904212517 95 260 1.0 4.0 0.00 0.00 0.00 53 1012.5
20260904211538 95 274 1.0 4.0 0.00 0.00 0.00 54 1012.7
20260904210538 95 270 1.0 5.0 0.00 0.00 0.00 54 1012.7
20260904205518 95 276 1.0 4.0 0.00 0.00 0.00 53 1013.0
20260904204538 95 271 2.0 6.0 0.00 0.00 0.00 54 1013.1
20260904203518 94 282 1.0 4.0 0.00 0.00 0.00 55 1013.2
20260904202518 94 64 1.0 4.0 0.00 0.00 0.00 55 1013.2
20260904201515 94 359 1.0 3.0 0.00 0.00 0.00 55 1013.3
20260904200516 93 276 1.0 4.0 0.00 0.00 0.00 57 1013.4
20260904195516 93 99 1.0 4.0 0.00 0.00 0.00 57 1013.5
20260904194516 93 352 1.0 4.0 0.00 0.00 0.00 55 1013.6
20260904193516 92 104 2.0 6.0 0.00 0.00 0.00 55 1013.9
20260904192536 92 83 1.0 5.0 0.00 0.00 0.00 55 1014.0
20260904191537 90 108 2.0 6.0 0.00 0.00 0.00 57 1014.2
20260904190517 90 100 3.0 6.0 0.00 0.00 0.00 60 1014.3
20260904185517 89 103 3.0 7.0 0.00 0.00 0.00 62 1014.4
20260904184517 89 103 3.0 9.0 0.00 0.00 0.00 62 1014.5
20260904183517 88 84 5.0 10.0 0.00 0.00 0.00 65 1014.8
20260904182517 87 85 7.0 14.0 0.00 0.00 0.00 65 1015.0
20260904181518 87 94 5.0 10.0 0.00 0.00 0.00 67 1015.1
20260904180558 86 92 5.0 13.0 0.00 0.00 0.00 67 1015.2
20260904175518 86 95 5.0 12.0 0.00 0.00 0.00 70 1015.6
20260904174518 86 91 8.0 12.0 0.00 0.00 0.00 68 1015.7
20260904173515 86 91 6.0 13.0 0.00 0.00 0.00 67 1015.7
20260904172515 86 90 6.0 14.0 0.00 0.00 0.00 68 1015.8
20260904171516 86 94 6.0 11.0 0.00 0.00 0.00 68 1016.0
20260904170536 87 90 6.0 11.0 0.00 0.00 0.00 68 1015.9
20260904165516 87 85 3.0 7.0 0.00 0.00 0.00 67 1016.0
20260904164517 88 83 4.0 9.0 0.00 0.00 0.00 68 1015.9
20260904163517 88 84 4.0 9.0 0.00 0.00 0.00 64 1015.7
20260904162516 88 86 3.0 6.0 0.00 0.00 0.00 63 1015.6
20260904161517 89 61 1.0 4.0 0.00 0.00 0.00 62 1015.6
20260904160517 89 83 3.0 7.0 0.00 0.00 0.00 63 1015.5
20260904155517 89 68 2.0 7.0 0.00 0.00 0.00 61 1015.3
20260904154517 89 12 1.0 4.0 0.00 0.00 0.00 60 1015.2
20260904153517 89 332 1.0 5.0 0.00 0.00 0.00 60 1015.1
20260904152517 88 24 1.0 5.0 0.00 0.00 0.00 61 1015.0
20260904151518 88 59 2.0 6.0 0.00 0.00 0.00 62 1014.9
20260904150518 88 344 1.0 3.0 0.00 0.00 0.00 62 1015.0
20260904145518 87 353 1.0 5.0 0.00 0.00 0.00 62 1015.0
20260904144518 87 326 1.0 5.0 0.00 0.00 0.00 63 1014.7
20260904143515 87 267 1.0 5.0 0.00 0.00 0.00 64 1014.7
20260904142515 86 287 0.0 2.0 0.00 0.00 0.00 65 1014.9
20260904141515 85 347 0.0 2.0 0.00 0.00 0.00 66 1014.7
20260904140516 85 352 1.0 3.0 0.00 0.00 0.00 66 1014.7
20260904135516 84 76 1.0 3.0 0.00 0.00 0.00 67 1014.7
20260904134516 84 71 1.0 3.0 0.00 0.00 0.00 70 1014.7
20260904133516 84 75 0.0 3.0 0.00 0.00 0.00 68 1014.7
20260904132517 83 0.0 0.0 0.00 0.00 0.00 70 1014.6
20260904131517 81 239 0.0 2.0 0.00 0.00 0.00 72 1014.4
20260904130517 80 225 0.0 2.0 0.00 0.00 0.00 74 1014.3
20260904125517 79 146 0.0 2.0 0.00 0.00 0.00 77 1014.1
20260904124517 77 270 0.0 1.0 0.00 0.00 0.00 80 1014.0
20260904123517 77 232 0.0 1.0 0.00 0.00 0.00 81 1013.7
20260904122517 76 227 0.0 2.0 0.00 0.00 0.00 83 1013.6
20260904121518 75 0.0 0.0 0.00 0.00 0.00 84 1013.5
20260904120518 75 0.0 0.0 0.00 0.00 0.00 84 1013.5
20260904115518 75 0.0 0.0 0.00 0.00 0.00 84 1013.5
20260904114518 75 0.0 0.0 0.00 0.00 0.00 83 1013.2
20260904113515 76 0.0 0.0 0.00 0.00 0.00 83 1013.0
20260904112516 76 261 1.0 4.0 0.00 0.00 0.00 82 1012.9
20260904111517 76 259 0.0 3.0 0.00 0.00 0.00 82 1012.9
20260904110516 76 244 1.0 4.0 0.00 0.00 0.00 82 1012.7
20260904105516 76 261 0.0 2.0 0.00 0.00 0.00 82 1012.8
20260904104516 76 254 1.0 4.0 0.00 0.00 0.00 82 1012.9
20260904103517 76 239 1.0 4.0 0.00 0.00 0.00 83 1013.0
20260904102517 76 241 0.0 2.0 0.00 0.00 0.00 83 1013.0
20260904101517 75 226 0.0 3.0 0.00 0.00 0.00 84 1013.1
20260904100517 75 227 0.0 2.0 0.00 0.00 0.00 85 1013.3
20260904095517 76 0.0 0.0 0.00 0.00 0.00 84 1013.3
20260904094517 76 0.0 0.0 0.00 0.00 0.00 84 1013.3
20260904093518 76 0.0 0.0 0.00 0.00 0.00 84 1013.3
20260904092518 76 218 0.0 2.0 0.00 0.00 0.00 84 1013.5
20260904091518 77 0.0 0.0 0.00 0.00 0.00 83 1013.6
20260904090518 77 0.0 0.0 0.00 0.00 0.00 82 1013.7
20260904085518 77 0.0 0.0 0.00 0.00 0.00 81 1013.6
20260904084515 78 0.0 0.0 0.00 0.00 0.00 80 1013.5
20260904083535 78 237 0.0 2.0 0.00 0.00 0.00 80 1013.3
20260904082516 78 232 0.0 3.0 0.00 0.00 0.00 80 1013.2
20260904081516 78 250 1.0 4.0 0.00 0.00 0.00 80 1013.1
20260904080516 78 222 1.0 4.0 0.00 0.00 0.00 80 1012.9
20260904075516 79 236 0.0 3.0 0.00 0.00 0.00 80 1012.9
20260904074516 79 233 1.0 6.0 0.00 0.00 0.00 81 1012.8
20260904073556 79 224 0.0 3.0 0.00 0.00 0.00 81 1012.9
20260904072516 78 226 1.0 3.0 0.00 0.00 0.00 82 1013.0
20260904071517 78 270 0.0 2.0 0.00 0.00 0.00 82 1013.1
20260904070537 78 86 0.0 2.0 0.00 0.00 0.00 83 1013.2
20260904065517 79 112 0.0 1.0 0.00 0.00 0.00 83 1013.3
20260904064558 79 201 0.0 3.0 0.00 0.00 0.00 82 1013.5
20260904063518 79 105 0.0 1.0 0.00 0.00 0.00 82 1013.6
20260904062518 79 86 0.0 1.0 0.00 0.00 0.00 82 1013.8
20260904061538 79 95 0.0 2.0 0.00 0.00 0.00 82 1013.8
20260904060518 79 102 0.0 3.0 0.00 0.00 0.00 83 1013.9
20260904055539 79 78 0.0 2.0 0.00 0.00 0.00 83 1013.9
20260904054515 79 81 0.0 2.0 0.00 0.00 0.00 82 1014.0
20260904053536 79 69 0.0 2.0 0.00 0.00 0.00 82 1013.9
20260904052516 79 49 0.0 3.0 0.00 0.00 0.00 82 1013.8
20260904051516 79 138 0.0 3.0 0.00 0.00 0.00 81 1013.7
20260904050556 79 81 0.0 4.0 0.00 0.00 0.00 82 1013.7
20260904045516 79 101 1.0 3.0 0.00 0.00 0.00 83 1013.8
20260904044517 79 75 0.0 3.0 0.00 0.00 0.00 83 1013.8
20260904043517 79 85 0.0 3.0 0.00 0.00 0.00 81 1013.9
20260904042517 80 77 0.0 4.0 0.00 0.00 0.00 80 1014.0
20260904041517 80 105 0.0 3.0 0.00 0.00 0.00 81 1014.0
20260904040517 80 91 1.0 3.0 0.00 0.00 0.00 80 1014.0
20260904035517 81 49 0.0 2.0 0.00 0.00 0.00 79 1014.0
20260904034538 81 89 0.0 3.0 0.00 0.00 0.00 79 1014.1
20260904033518 81 85 0.0 2.0 0.00 0.00 0.00 79 1014.0
20260904032518 81 77 0.0 3.0 0.00 0.00 0.00 78 1014.1
20260904031518 81 106 0.0 2.0 0.00 0.00 0.00 79 1014.1
20260904030516 81 74 0.0 4.0 0.00 0.00 0.00 82 1014.2
20260904025515 81 0 0.0 2.0 0.00 0.00 0.00 83 1014.2
20260904024515 81 85 0.0 4.0 0.00 0.00 0.00 83 1014.1
20260904023516 81 66 0.0 2.0 0.00 0.00 0.00 83 1014.0
20260904022516 82 67 0.0 3.0 0.00 0.00 0.00 82 1013.9
20260904021516 82 85 0.0 3.0 0.00 0.00 0.00 83 1013.8
20260904020536 82 71 0.0 3.0 0.00 0.00 0.00 82 1013.7
20260904015516 82 71 0.0 3.0 0.00 0.00 0.00 82 1013.5
20260904014517 83 86 0.0 3.0 0.00 0.00 0.00 81 1013.4
20260904013517 83 102 1.0 5.0 0.00 0.00 0.00 80 1013.2
20260904012517 84 56 1.0 4.0 0.00 0.00 0.00 80 1013.0
20260904011518 84 117 1.0 5.0 0.00 0.00 0.00 79 1013.0
20260904010517 85 94 1.0 5.0 0.00 0.00 0.00 78 1012.8
20260904005517 85 77 1.0 4.0 0.00 0.00 0.00 77 1012.6
20260904004518 86 82 0.0 5.0 0.00 0.00 0.00 76 1012.7
20260904003518 87 79 0.0 3.0 0.00 0.00 0.00 75 1012.6
20260904002518 88 61 0.0 3.0 0.00 0.00 0.00 72 1012.7
20260904001518 89 75 0.0 3.0 0.00 0.00 0.00 70 1012.6
20260904000535 89 0.0 0.0 0.00 0.00 0.00 70 1012.7
20260903235515 90 23 0.0 2.0 0.00 0.00 0.00 68 1012.7
20260903234536 91 28 0.0 3.0 0.00 0.00 0.00 65 1012.7
20260903233516 92 35 0.0 3.0 0.00 0.00 0.00 63 1012.7
20260903232536 92 73 0.0 2.0 0.00 0.00 0.00 63 1012.7